Regional Weather Roundup
Issued by NWS Bismarck, ND

Home | Current Version | Previous Version | Text Only | Print | Product List | Glossary On
Versions: 1 2 3 4 5 6 7 8 9 10 11 12 13 14 15 16 17 18 19 20 21 22 23 24 25 26 27 28 29 30 31 32 33 34 35 36 37 38 39 40 41 42 43 44 45 46 47 48 49 50
000
ASUS43 KBIS 290320
RWRBIS

NWR BROADCAST TEXT
NATIONAL WEATHER SERVICE BISMARCK ND
900 PM CST FRI NOV 28 2014

NOTE: "FAIR" INDICATES FEW OR NO CLOUDS BELOW 12,000 FEET WITH NO
SIGNIFICANT WEATHER AND/OR OBSTRUCTIONS TO VISIBILITY.


CITY           SKY/WX    TMP DP  RH WIND       PRES   REMARKS
WILLISTON      CLOUDY    20  16  84 N9        29.42F WCI   9
MINOT          MOCLDY    11   6  81 E8        29.47F WCI  -1
MINOT AFB      MOCLDY    10   8  90 E8        29.47F WCI  -2
BISMARCK       PTCLDY    17  11  77 SE8       29.49F WCI   7
DICKINSON      PTCLDY    40  30  67 CALM      29.36F
GARRISON         N/A     16  13  88 SE8       29.42F WCI   5
HETTINGER ARPT CLOUDY    41  31  67 CALM      29.43F
JAMESTOWN      PTCLDY    13  10  88 SE12      29.54F WCI  -1
BEACH          CLOUDY    41  32  70 SW12      29.38F
CARRINGTON     CLOUDY    12  12 100 SE20      29.51F FOG     WCI  -6
CROSBY         CLOUDY    14  12  92 NE8       29.44F WCI   3
HARVEY         FAIR      10   9  92 SE10      29.49F WCI  -3
HAZEN          FAIR      14  10  85 E5        29.43F WCI   6
LINTON         FAIR      16  14  93 SE9G16    29.50F WCI   4
MANDAN         FAIR      16  14  93 SE9       29.46F WCI   4
OAKES            N/A     14  14 100 SE6       29.57F WCI   5
RUGBY          FAIR      10   9  92 SE8       29.54F WCI  -1
STANLEY        FAIR      14  14 100 E3        29.41F
TIOGA          FAIR      16  16 100 E5        29.43F WCI   9
$$

CITY           SKY/WX    TMP DP  RH WIND       PRES   REMARKS
GRAND FORKS    CLOUDY    17  12  80 S15       29.62F WCI   2
GRAND FORKS AF CLOUDY    17  12  82 S10       29.62F WCI   4
DEVILS LAKE    CLOUDY    12   3  67 SE10      29.54F WCI  -1
FARGO          MOCLDY    19  12  74 SE18G28   29.64F WCI   4
CANDO          CLOUDY    12   9  85 SE15      29.56F WCI  -4
CAVALIER       CLOUDY    16  10  79 S8        29.64F WCI   5
GRAFTON        MOCLDY    16  10  79 SE8       29.64F WCI   5
GWINNER        MOCLDY    18  14  86 SE14      29.61F WCI   4
LANGDON        CLOUDY    12   9  85 SE15      29.56F WCI  -4
ROLLA          CLOUDY    10   9  92 S14       29.53F WCI  -5
WALHALLA         N/A     14  14 100 SE9       29.63F WCI   2
$$

CITY           SKY/WX    TMP DP  RH WIND       PRES   REMARKS
ABERDEEN       PTCLDY    14  11  87 SE3       29.57F
MOBRIDGE       CLEAR     25  21  85 SE13      29.47F WCI  14
BUFFALO          N/A     46  29  51 SW12      29.38F
RAPID CITY     MOCLDY    50  25  37 SW7       29.51F
GLASGOW        CLOUDY    20  15  81 NW16      29.49R WCI   6
SIDNEY         CLOUDY    28  25  86 CALM      29.44R
WOLF POINT     CLOUDY    29  25  85 N8        29.48R
GLENDIVE       CLOUDY    34  28  80 NW17      29.39F
MILES CITY     CLOUDY    50  32  50 SW13      29.37F
BAKER          CLOUDY    51  31  46 SW14      29.40F
$$

CITY           SKY/WX    TMP DP  RH WIND       PRES   REMARKS
BILLINGS       PTCLDY    50  20  30 W12       29.40F
GREAT FALLS    CLOUDY     3   0  85 N15       29.55R WCI -15
REGINA         FLURRIES  12   9  85 S3        29.50S
ESTEVAN        CLOUDY    12   9  85 E10       29.45F WCI  -1
$$




USA.gov is the U.S. government's official web portal to all federal, state and local government web resources and services.